This demonstration page uses our WeatherBlox Daily Observations layout. Learn more.

Left ArrowRight Arrow

41.55636, -103.73856

Hourly Observations for April 24, 2020

Temp ( °F °C ) Dew Point ( °F °C ) Humidity (%) Winds ( mph kmh ) Pressure ( in mb ) Visibility ( mi km ) Precip ( " mm )
7:58 pm 19:58 Mostly Cloudy 47 8.3 41 5.2 81 81 N 5 7 29.81 1010 10 16 0.00 0.00
8:58 pm 20:58 Cloudy with Light Showers 47 8.2 43 5.9 86 86 WNW 6 9 29.83 1010 10 16 0.01 0.25
9:58 pm 21:58 Cloudy with Light Showers 46 7.5 42 5.8 89 89 Calm 29.85 1011 10 16 0.03 0.76
10:58 pm 22:58 Mostly Cloudy with Light Showers 44 6.7 41 5 89 89 N 14 22 29.87 1011 10 16 0.01 0.25
11:58 pm 23:58 Cloudy with Rain 42 5.8 41 4.9 94 94 NW 13 20 29.89 1012 10 16 0.07 1.78
12:58 am 00:58 Cloudy with Rain 42 5.3 40 4.2 93 93 N 12 19 29.90 1013 10 16 0.09 2.29
1:58 am 01:58 Cloudy with Light Rain 40 4.4 38 3.5 94 94 Calm 29.91 1013 10 16 0.08 2.03
2:58 am 02:58 Cloudy with Drizzle 40 4.6 39 3.8 95 95 W 6 9 29.91 1013 10 16 0.01 0.25
3:58 am 03:58 Cloudy 41 5 39 4 93 93 W 12 19 29.92 1013 10 16 0.00 0.00
4:58 am 04:58 Cloudy with Drizzle 42 5.3 40 4.3 93 93 NW 15 24 29.94 1014 10 16 0.00 0.00
5:58 am 05:58 Cloudy with Light Showers 41 5.2 40 4.4 95 95 NW 14 22 30.00 1016 10 16 0.02 0.51
6:58 am 06:58 Cloudy with Light Showers 42 5.3 40 4.3 93 93 NW 16 26 30.03 1017 10 16 0.01 0.25
7:58 am 07:58 Cloudy 42 5.8 40 4.6 92 92 NNW 17 28 30.05 1018 10 16 0.00 0.00
8:58 am 08:58 Mostly Cloudy with Light Showers 43 6.1 40 4.6 90 90 NNW 14 22 30.07 1018 10 16 0.01 0.25
9:58 am 09:58 Mostly Cloudy with Light Showers 44 6.4 41 5 91 91 NNW 16 26 30.09 1019 10 16 0.02 0.51
10:58 am 10:58 Mostly Cloudy 48 8.9 40 4.7 75 75 NW 22 35 30.07 1018 10 16 0.00 0.00
11:58 am 11:58 Mostly Cloudy with Light Showers 45 7.3 38 3.6 78 78 NNE 17 28 30.12 1020 10 16 0.01 0.25
12:58 pm 12:58 Mostly Cloudy 47 8.6 38 3.4 70 70 NE 7 11 30.09 1019 10 16 0.01 0.25
1:58 pm 13:58 Mostly Cloudy 49 9.5 41 5.2 75 75 ENE 12 19 30.09 1019 10 16 0.02 0.51
2:58 pm 14:58 Mostly Cloudy with Light Showers 47 8.2 41 4.9 80 80 E 10 17 30.10 1019 10 16 0.00 0.00
3:58 pm 15:58 Partly Cloudy 51 10.5 41 5.2 70 70 NNE 10 17 30.06 1018 10 16 0.00 0.00
4:58 pm 16:58 Sunny 54 12.2 36 2.4 51 51 N 8 13 30.04 1017 10 16 0.00 0.00
5:58 pm 17:58 Mostly Sunny 52 11.2 32 0.1 47 47 NNW 9 15 30.06 1018 10 16 0.00 0.00

Powered by AerisWeather